Location: Unspecified
(43.3830°N, 0.0000°E)
Time: 19:07:27
(UTC+00:00)

Explorer 7 - Pass Details

Date: 30 June 2019
Orbit: 485 x 680 km, 50.3° (Epoch: 21 July)

Event Time Altitude Azimuth Distance (km) Brightness Sun altitude
Rises 09:20:20 0° 293° (WNW) 2,776 10.0 50.9°
Reaches altitude 10° 09:22:41 10° 302° (WNW) 1,912 9.3 51.3°
Maximum altitude 09:26:45 36° 10° (N) 968 8.4 52.0°
Drops below altitude 10° 09:31:04 10° 78° (ENE) 2,023 10.4 52.7°
Sets 09:33:37 0° 87° (E) 2,960 11.1 53.2°
